CW5078 Weather Reports


Display with metric or nautical units.
time (UTC)temp
F
wind
direction
speed
MPH
gust
MPH
rain 1hr
in
rain 24hr
in
rain mn
in
humidity
%
barometer
mb
20171021155245 77 143 3.0 15.0 0.00 0.00 0.00 83 1014.0
20171021154245 77 137 5.0 14.0 0.00 0.00 0.00 82 1014.0
20171021153745 77 161 3.0 10.0 0.00 0.00 0.00 83 1014.1
20171021152744 77 107 3.0 5.0 0.00 0.00 0.00 84 1014.2
20171021152245 77 148 2.0 6.0 0.00 0.00 0.00 84 1014.4
20171021151744 76 192 4.0 9.0 0.00 0.00 0.00 85 1014.4
20171021151245 76 117 2.0 6.0 0.00 0.00 0.00 86 1014.5
20171021150745 76 181 3.0 6.0 0.00 0.00 0.00 86 1014.5
20171021150244 76 188 3.0 6.0 0.00 0.00 0.00 87 1014.6
20171021144744 75 152 3.0 6.0 0.00 0.00 0.00 88 1014.6
20171021144244 75 155 2.0 5.0 0.00 0.00 0.00 89 1014.6
20171021143245 74 205 2.0 6.0 0.00 0.00 0.00 90 1014.7
20171021142745 74 177 3.0 3.0 0.00 0.00 0.00 90 1014.8
20171021141745 73 103 1.0 3.0 0.00 0.00 0.00 91 1014.8
20171021141244 73 84 1.0 2.0 0.00 0.00 0.00 91 1014.8
20171021140245 73 148 1.0 9.0 0.00 0.00 0.00 92 1014.8
20171021135745 72 167 2.0 5.0 0.00 0.00 0.00 92 1014.8
20171021135245 72 156 2.0 3.0 0.00 0.00 0.00 92 1014.8
20171021134244 72 142 1.0 3.0 0.00 0.00 0.00 92 1014.7
20171021133745 72 170 1.0 3.0 0.00 0.00 0.00 93 1014.8
20171021132745 72 202 2.0 3.0 0.00 0.00 0.00 93 1014.8
20171021131745 71 157 2.0 3.0 0.00 0.00 0.00 93 1014.8
20171021130744 71 151 1.0 3.0 0.00 0.00 0.00 93 1014.7
20171021130245 71 181 1.0 3.0 0.00 0.00 0.00 93 1014.7
20171021124745 71 84 1.0 3.0 0.00 0.00 0.00 94 1014.6
20171021124245 71 150 1.0 5.0 0.00 0.00 0.00 94 1014.6
20171021123246 71 207 1.0 3.0 0.00 0.00 0.00 94 1014.6
20171021122745 71 229 1.0 3.0 0.00 0.00 0.00 94 1014.7
20171021122245 71 145 0.0 3.0 0.00 0.00 0.00 94 1014.7
20171021121744 71 146 1.0 3.0 0.00 0.00 0.00 94 1014.7
20171021121245 70 151 1.0 3.0 0.00 0.00 0.00 94 1014.5
20171021120745 70 134 1.0 2.0 0.00 0.00 0.00 94 1014.5
20171021120246 70 142 1.0 2.0 0.00 0.00 0.00 94 1014.5
20171021114245 70 85 1.0 2.0 0.00 0.00 0.00 94 1014.4
20171021113745 70 84 1.0 2.0 0.00 0.00 0.00 94 1014.4
20171021113245 70 83 0.0 1.0 0.00 0.00 0.00 94 1014.3
20171021112745 70 83 0.0 1.0 0.00 0.00 0.00 94 1014.3
20171021112246 70 83 0.0 2.0 0.00 0.00 0.00 94 1014.2
20171021111745 70 83 0.0 1.0 0.00 0.00 0.00 94 1014.2
20171021111245 70 83 1.0 2.0 0.00 0.00 0.00 94 1014.2
20171021110745 70 68 0.0 0.0 0.00 0.00 0.00 94 1014.1
20171021110245 70 68 0.0 2.0 0.00 0.00 0.00 94 1014.0
20171021105745 70 164 0.0 1.0 0.00 0.00 0.00 94 1013.9
20171021105245 70 164 1.0 2.0 0.00 0.00 0.00 94 1013.8
20171021104746 70 164 1.0 3.0 0.00 0.00 0.00 94 1013.8
20171021103245 70 136 1.0 3.0 0.00 0.00 0.00 94 1013.8
20171021102745 70 200 1.0 2.0 0.00 0.00 0.00 94 1013.8
20171021101745 70 190 2.0 3.0 0.00 0.00 0.00 94 1013.7
20171021101245 70 160 1.0 3.0 0.00 0.00 0.00 94 1013.6
20171021100745 70 183 2.0 5.0 0.00 0.00 0.00 94 1013.6
20171021095745 70 139 3.0 6.0 0.00 0.00 0.00 94 1013.5
20171021094745 70 150 2.0 5.0 0.00 0.00 0.00 94 1013.5
20171021094245 70 138 2.0 5.0 0.00 0.00 0.00 94 1013.5
20171021093745 70 139 1.0 8.0 0.00 0.00 0.00 93 1013.5
20171021092246 69 162 2.0 6.0 0.00 0.00 0.00 93 1013.4
20171021091246 69 158 3.0 9.0 0.00 0.00 0.00 93 1013.3
20171021090745 69 104 1.0 3.0 0.00 0.00 0.00 93 1013.4
20171021090245 69 137 3.0 9.0 0.00 0.00 0.00 93 1013.3
20171021085745 69 81 2.0 3.0 0.00 0.00 0.00 93 1013.2
20171021084746 69 132 3.0 5.0 0.00 0.00 0.00 93 1013.3
20171021082745 69 161 1.0 2.0 0.00 0.00 0.00 93 1013.6
20171021082246 68 105 1.0 3.0 0.00 0.00 0.00 93 1013.5
20171021081746 68 166 1.0 3.0 0.00 0.00 0.00 92 1013.5
20171021081245 68 123 1.0 3.0 0.00 0.00 0.00 92 1013.5
20171021080745 68 174 0.0 2.0 0.00 0.00 0.00 92 1013.5
20171021080246 68 169 1.0 3.0 0.00 0.00 0.00 92 1013.5
20171021075745 68 227 2.0 5.0 0.00 0.00 0.00 92 1013.5
20171021074246 68 123 2.0 6.0 0.00 0.00 0.00 92 1013.4
20171021073745 68 152 2.0 3.0 0.00 0.00 0.00 92 1013.6
20171021073246 68 155 2.0 3.0 0.00 0.00 0.00 92 1013.6
20171021072745 68 88 2.0 6.0 0.00 0.00 0.00 93 1013.6
20171021072245 68 132 2.0 3.0 0.00 0.00 0.00 93 1013.8
20171021071245 67 120 1.0 6.0 0.00 0.00 0.00 94 1013.9
20171021070746 66 116 2.0 8.0 0.00 0.00 0.00 94 1014.0
20171021065246 66 155 1.0 3.0 0.00 0.00 0.00 94 1014.1
20171021063746 65 135 0.0 0.0 0.00 0.00 0.00 94 1014.4
20171021063246 65 135 0.0 0.0 0.00 0.00 0.00 94 1014.4
20171021062746 64 135 0.0 0.0 0.00 0.00 0.00 94 1014.5
20171021062246 64 135 0.0 0.0 0.00 0.00 0.00 94 1014.6
20171021060746 64 135 0.0 0.0 0.00 0.00 0.00 93 1014.9
20171021060245 64 135 0.0 0.0 0.00 0.00 0.00 93 1015.0
20171021055246 64 135 0.0 0.0 0.00 0.00 0.00 92 1014.8
20171021054746 64 135 0.0 0.0 0.00 0.00 0.00 92 1015.0
20171021053246 64 135 0.0 0.0 0.00 0.00 0.00 91 1015.0
20171021052246 64 135 0.0 0.0 0.00 0.00 0.00 91 1015.0
20171021051746 64 135 0.0 0.0 0.00 0.00 0.00 91 1014.9
20171021051246 64 135 0.0 0.0 0.00 0.00 0.00 91 1014.9
20171021050758 64 135 0.0 0.0 0.00 0.00 0.00 91 1015.0
20171021050246 64 135 0.0 0.0 0.00 0.00 0.00 91 1015.0
20171021045247 65 135 0.0 0.0 0.00 0.00 0.00 90 1015.0
20171021044746 65 135 0.0 0.0 0.00 0.00 0.00 90 1015.0
20171021044246 65 135 0.0 0.0 0.00 0.00 0.00 90 1015.0
20171021043746 65 135 0.0 0.0 0.00 0.00 0.00 89 1015.0
20171021043246 65 135 0.0 0.0 0.00 0.00 0.00 89 1015.0
20171021042746 65 135 0.0 0.0 0.00 0.00 0.00 89 1015.0
20171021042246 65 135 0.0 0.0 0.00 0.00 0.00 89 1015.0
20171021041746 65 135 0.0 0.0 0.00 0.00 0.00 89 1014.9
20171021041245 65 135 0.0 0.0 0.00 0.00 0.00 89 1015.0
20171021040747 66 135 0.0 0.0 0.00 0.00 0.00 89 1014.9
20171021040245 66 135 0.0 0.0 0.00 0.00 0.00 88 1015.0
20171021035746 66 135 0.0 0.0 0.00 0.00 0.00 88 1015.1
20171021035246 66 135 0.0 0.0 0.00 0.00 0.00 88 1015.1
20171021034246 66 135 0.0 0.0 0.00 0.00 0.00 88 1015.0
20171021033747 66 135 0.0 0.0 0.00 0.00 0.00 87 1015.0
20171021033246 67 135 0.0 0.0 0.00 0.00 0.00 87 1014.9
20171021032746 67 135 0.0 0.0 0.00 0.00 0.00 87 1015.0
20171021031746 67 135 0.0 0.0 0.00 0.00 0.00 86 1014.7
20171021031246 67 135 0.0 0.0 0.00 0.00 0.00 87 1014.7
20171021030746 67 135 0.0 0.0 0.00 0.00 0.00 86 1014.7
20171021024246 68 135 0.0 0.0 0.00 0.00 0.00 85 1014.5
20171021022746 69 138 0.0 1.0 0.00 0.00 0.00 84 1014.6
20171021022246 69 138 0.0 0.0 0.00 0.00 0.00 83 1014.7
20171021021246 69 138 0.0 1.0 0.00 0.00 0.00 84 1014.8
20171021020746 69 138 0.0 0.0 0.00 0.00 0.00 84 1014.9
20171021020247 69 138 0.0 0.0 0.00 0.00 0.00 83 1014.9
20171021015746 69 138 0.0 2.0 0.00 0.00 0.00 83 1015.0
20171021015247 70 138 1.0 3.0 0.00 0.00 0.00 83 1015.0
20171021014746 70 81 0.0 2.0 0.00 0.00 0.00 83 1015.0
20171021014246 70 82 1.0 3.0 0.00 0.00 0.00 83 1015.0
20171021013746 70 85 1.0 3.0 0.00 0.00 0.00 83 1015.0
20171021013246 70 136 1.0 2.0 0.00 0.00 0.00 82 1015.0
20171021012746 70 110 1.0 3.0 0.00 0.00 0.00 82 1014.9
20171021012247 70 155 1.0 3.0 0.00 0.00 0.00 82 1014.9
20171021011747 70 101 1.0 3.0 0.00 0.00 0.00 82 1014.9
20171021011247 70 116 2.0 3.0 0.00 0.00 0.00 82 1014.8
20171021010746 70 130 0.0 2.0 0.00 0.00 0.00 82 1014.9
20171021010247 70 136 1.0 3.0 0.00 0.00 0.00 82 1014.9
20171021004247 70 86 1.0 2.0 0.00 0.00 0.00 80 1015.0
20171021003746 70 86 1.0 2.0 0.00 0.00 0.00 80 1014.9
20171021003247 71 127 0.0 3.0 0.00 0.00 0.00 79 1015.0
20171021002747 71 142 0.0 0.0 0.00 0.00 0.00 79 1015.0
20171021002247 71 142 0.0 0.0 0.00 0.00 0.00 78 1015.0
20171021001747 71 142 0.0 0.0 0.00 0.00 0.00 77 1015.0
20171021000746 72 142 0.0 3.0 0.00 0.00 0.00 76 1015.0
20171021000246 72 117 1.0 2.0 0.00 0.00 0.00 75 1015.0
20171020235747 72 116 1.0 2.0 0.00 0.00 0.00 75 1014.9
20171020234747 73 109 1.0 2.0 0.00 0.00 0.00 73 1014.8
20171020233747 74 117 1.0 2.0 0.00 0.00 0.00 71 1014.8
20171020233246 74 111 1.0 2.0 0.00 0.00 0.00 70 1014.9
20171020232246 75 115 2.0 3.0 0.00 0.00 0.00 68 1014.8
20171020231746 75 153 2.0 3.0 0.00 0.00 0.00 67 1014.8
20171020230247 76 108 2.0 3.0 0.00 0.00 0.00 64 1014.8
20171020225747 76 146 2.0 7.0 0.00 0.00 0.00 64 1014.7
20171020225247 77 201 1.0 5.0 0.00 0.00 0.00 63 1014.8
20171020224247 77 116 1.0 3.0 0.00 0.00 0.00 63 1014.8
20171020223746 77 129 2.0 3.0 0.00 0.00 0.00 63 1014.7
20171020223247 77 107 2.0 3.0 0.00 0.00 0.00 62 1014.8
20171020221247 79 110 1.0 3.0 0.00 0.00 0.00 59 1014.7
20171020215747 79 100 3.0 8.0 0.00 0.00 0.00 57 1015.0
20171020214247 79 83 2.0 6.0 0.00 0.00 0.00 57 1015.4
20171020213247 78 113 1.0 3.0 0.00 0.00 0.00 58 1015.7
20171020212747 79 133 3.0 7.0 0.00 0.00 0.00 58 1015.8
20171020212247 80 110 2.0 3.0 0.00 0.00 0.00 57 1015.7
20171020210746 79 227 2.0 3.0 0.00 0.00 0.00 59 1016.0
20171020210247 79 72 3.0 6.0 0.00 0.00 0.00 57 1016.0
20171020205747 80 107 3.0 6.0 0.00 0.00 0.00 56 1016.0
20171020205247 80 151 3.0 8.0 0.00 0.00 0.00 57 1015.9
20171020204747 80 119 2.0 5.0 0.00 0.00 0.00 55 1015.8
20171020204246 79 90 3.0 6.0 0.00 0.00 0.00 57 1015.9
20171020203747 79 160 2.0 5.0 0.00 0.00 0.00 58 1016.0
20171020201747 78 89 1.0 3.0 0.00 0.00 0.00 59 1016.3
20171020201247 78 103 1.0 8.0 0.00 0.00 0.00 60 1016.4
20171020200748 78 122 2.0 8.0 0.00 0.00 0.00 59 1016.4
20171020195747 79 164 3.0 9.0 0.00 0.00 0.00 60 1016.4
20171020195247 79 153 2.0 3.0 0.00 0.00 0.00 60 1016.4
20171020194747 78 167 3.0 5.0 0.00 0.00 0.00 62 1016.4
20171020194246 77 137 4.0 8.0 0.00 0.00 0.00 62 1016.4
20171020193747 78 194 1.0 8.0 0.00 0.00 0.00 63 1016.5
20171020193247 77 167 5.0 8.0 0.00 0.00 0.00 64 1016.5
20171020192747 76 97 3.0 8.0 0.00 0.00 0.00 64 1016.6
20171020192247 77 139 3.0 8.0 0.00 0.00 0.00 64 1016.7
20171020191748 76 158 3.0 5.0 0.00 0.00 0.00 65 1016.8
20171020191247 76 146 2.0 5.0 0.00 0.00 0.00 65 1016.7
20171020190247 76 92 1.0 3.0 0.00 0.00 0.00 66 1016.6
20171020184247 76 133 2.0 3.0 0.00 0.00 0.00 65 1016.7
20171020183747 76 93 1.0 3.0 0.00 0.00 0.00 66 1016.8
20171020182747 76 132 2.0 5.0 0.00 0.00 0.00 66 1016.9
20171020181247 77 142 1.0 5.0 0.00 0.00 0.00 67 1017.0
20171020180747 76 85 2.0 3.0 0.00 0.00 0.00 67 1017.0
20171020180247 76 135 3.0 5.0 0.00 0.00 0.00 68 1017.2
20171020175247 75 35 2.0 3.0 0.00 0.00 0.00 69 1017.6
20171020174747 75 170 1.0 6.0 0.00 0.00 0.00 70 1017.7
20171020174247 75 129 1.0 3.0 0.00 0.00 0.00 70 1018.0
20171020173748 74 170 2.0 5.0 0.00 0.00 0.00 71 1018.1
20171020173247 74 159 3.0 5.0 0.00 0.00 0.00 71 1018.3
20171020172748 74 183 3.0 6.0 0.00 0.00 0.00 71 1018.3
20171020171247 74 138 2.0 6.0 0.00 0.00 0.00 73 1018.6
20171020170747 73 112 2.0 9.0 0.00 0.00 0.00 73 1018.6
20171020170249 73 141 2.0 3.0 0.00 0.00 0.00 75 1018.6
20171020164747 73 98 3.0 6.0 0.00 0.00 0.00 76 1019.0
20171020164247 72 150 2.0 9.0 0.00 0.00 0.00 78 1019.2
20171020163748 72 184 2.0 7.0 0.00 0.00 0.00 79 1019.3
20171020163247 71 128 3.0 8.0 0.00 0.00 0.00 79 1019.3
20171020162748 71 183 3.0 7.0 0.00 0.00 0.00 80 1019.4
20171020162248 71 113 2.0 8.0 0.00 0.00 0.00 80 1019.6
20171020161747 71 161 2.0 6.0 0.00 0.00 0.00 80 1019.7
20171020161247 71 159 3.0 7.0 0.00 0.00 0.00 80 1019.7
20171020160748 71 138 3.0 9.0 0.00 0.00 0.00 81 1019.7
20171020160247 71 144 3.0 12.0 0.00 0.00 0.00 80 1019.6
20171020155748 71 130 3.0 7.0 0.00 0.00 0.00 81 1019.6